EW2849 Weather Reports


time (UTC)temp
F
wind
direction
speed
knots
gust
knots
rain 1hr
in
rain 24hr
in
rain mn
in
humidity
%
barometer
mb
20260506185135 54 35 2.6 3.5 0.00 0.00 0.00 75 1008.8
20260506183933 54 45 2.6 5.2 0.00 0.00 0.00 75 1008.8
20260506182733 54 29 4.3 6.1 0.00 0.00 0.00 74 1008.8
20260506181552 55 30 6.1 8.7 0.00 0.00 0.00 73 1008.8
20260506180331 55 45 6.1 9.6 0.00 0.00 0.00 72 1008.8
20260506175129 56 45 7.8 13.0 0.00 0.00 0.00 71 1008.8
20260506173948 56 38 4.3 7.0 0.00 0.00 0.00 70 1008.8
20260506172727 57 45 7.8 11.3 0.00 0.00 0.00 69 1008.8
20260506171525 57 41 7.8 11.3 0.00 0.00 0.00 68 1008.8
20260506170325 57 45 11.3 16.5 0.00 0.00 0.00 67 1008.8
20260506165123 57 45 7.0 9.6 0.00 0.00 0.00 65 1008.8
20260506163922 57 51 4.3 9.6 0.00 0.00 0.00 65 1008.8
20260506162721 58 32 5.2 9.6 0.00 0.00 0.00 64 1008.8
20260506161519 58 54 10.4 16.5 0.00 0.00 0.00 64 1008.8
20260506160318 59 45 7.8 11.3 0.00 0.00 0.00 64 1008.8
20260506155117 59 37 7.8 13.0 0.00 0.00 0.00 66 1008.8
20260506153916 60 46 6.1 8.7 0.00 0.00 0.00 66 1008.8
20260506152815 60 10 3.5 7.8 0.00 0.00 0.00 66 1008.8
20260506151613 60 27 5.2 9.6 0.00 0.00 0.00 66 1008.8
20260506150412 60 45 4.3 6.1 0.00 0.00 0.00 65 1008.8
20260506145211 61 45 7.8 9.6 0.00 0.00 0.00 64 1008.8
20260506144010 62 18 5.2 7.8 0.00 0.00 0.00 64 1008.8
20260506142810 63 19 3.5 7.0 0.00 0.00 0.00 66 1006.3
20260506141606 63 45 3.5 7.0 0.00 0.00 0.00 67 1008.8
20260506140406 62 5 5.2 9.6 0.00 0.00 0.00 68 1008.8
20260506135204 61 26 5.2 8.7 0.00 0.00 0.00 68 1008.8
20260506134003 61 30 5.2 12.2 0.00 0.00 0.00 66 1008.8
20260506132801 62 20 4.3 7.8 0.00 0.00 0.00 66 1008.8
20260506131620 63 34 7.0 11.3 0.00 0.00 0.00 64 1008.8
20260506130359 64 13 4.3 6.1 0.00 0.00 0.00 64 1008.8
20260506125158 63 0 6.1 8.7 0.00 0.00 0.00 66 1008.8
20260506123956 62 27 6.1 9.6 0.00 0.00 0.00 65 1008.8
20260506122815 62 41 7.8 13.0 0.00 0.00 0.00 66 1008.8
20260506121614 61 0 7.0 10.4 0.00 0.00 0.00 69 1008.8
20260506120353 61 17 6.1 8.7 0.00 0.00 0.00 70 1008.8
20260506115151 61 40 7.8 11.3 0.00 0.00 0.00 70 1008.8
20260506113950 60 17 6.1 11.3 0.00 0.00 0.00 74 1008.8
20260506112749 61 19 5.2 9.6 0.00 0.00 0.00 75 1008.8
20260506111547 60 12 4.3 6.1 0.00 0.00 0.00 75 1008.8
20260506110347 61 0 7.8 11.3 0.00 0.00 0.00 76 1008.8
20260506105145 59 45 5.2 9.6 0.00 0.00 0.00 76 1008.8
20260506103944 60 5 8.7 12.2 0.00 0.00 0.00 77 1008.8
20260506102743 59 0 6.1 7.8 0.00 0.00 0.00 79 1008.8
20260506101542 59 45 4.3 6.1 0.00 0.00 0.00 78 1008.8
20260506100341 60 23 5.2 7.8 0.00 0.00 0.00 80 1008.8
20260506095140 60 23 6.1 7.8 0.00 0.00 0.00 83 1008.8
20260506093939 59 344 7.0 8.7 0.00 0.00 0.00 88 1008.8
20260506092737 58 9 7.8 13.0 0.00 0.00 0.00 91 1008.0
20260506091536 57 45 3.5 4.3 0.00 0.00 0.00 95 1008.8
20260506090335 55 11 3.5 6.1 0.00 0.00 0.00 98 1008.0
20260506085134 55 0 3.5 7.8 0.00 0.00 0.00 99 1008.8
20260506083933 54 6 0.9 2.6 0.00 0.00 0.00 100 1008.0
20260506082732 53 348 2.6 5.2 0.00 0.00 0.00 100 1008.8
20260506081530 53 15 2.6 6.1 0.00 0.00 0.00 100 1008.8
20260506080349 52 0 7.0 9.6 0.00 0.00 0.00 100 1008.8
20260506072726 51 341 3.5 7.0 0.00 0.00 0.00 100 1008.8
20260506071525 51 0 4.3 6.1 0.00 0.00 0.00 100 1008.8
20260506070324 50 348 4.3 7.0 0.00 0.00 0.00 100 1008.8
20260506061540 50 4 2.6 5.2 0.00 0.00 0.00 100 1005.5
20260506060318 50 0 4.3 7.0 0.00 0.00 0.00 99 1005.5
20260506050432 50 4 2.6 4.3 0.00 0.00 0.00 97 1005.5
20260506044029 50 6 4.3 7.8 0.00 0.00 0.00 96 1005.5
20260506042828 50 14 3.5 8.7 0.00 0.00 0.00 96 1005.5
20260506041607 50 6 4.3 6.1 0.00 0.00 0.00 95 1005.5
20260506040406 50 0 5.2 7.0 0.00 0.00 0.00 94 1005.5
20260506035205 50 0 4.3 5.2 0.00 0.00 0.00 94 1005.5
20260506034004 50 0 6.1 7.8 0.00 0.00 0.00 94 1005.5
20260506032803 50 0 3.5 5.2 0.00 0.00 0.00 94 1005.5
20260506031621 50 0 3.5 4.3 0.00 0.00 0.00 93 1005.5
20260506030400 50 34 2.6 4.3 0.00 0.00 0.00 93 1005.5
20260506025159 50 0 3.5 7.8 0.00 0.00 0.00 93 1005.5
20260506024018 50 23 1.7 3.5 0.00 0.00 0.00 93 1005.5
20260506022757 50 346 3.5 6.1 0.00 0.00 0.00 92 1006.3
20260506021556 50 0 5.2 6.1 0.00 0.00 0.00 92 1008.8
20260506020355 50 14 1.7 4.3 0.00 0.00 0.00 91 1008.8
20260506015153 50 0 1.7 4.3 0.00 0.00 0.00 91 1008.8
20260506013952 50 0 3.5 7.0 0.00 0.00 0.00 91 1008.8
20260506012752 50 0 3.5 7.8 0.00 0.00 0.00 91 1008.8
20260506011549 50 8 4.3 7.0 0.00 0.00 0.00 90 1008.8
20260506010348 51 23 2.6 4.3 0.00 0.00 0.00 90 1008.8
20260506005148 51 17 1.7 2.6 0.00 0.00 0.00 90 1008.8
20260506003947 51 13 3.5 5.2 0.00 0.00 0.00 90 1008.8
20260506002745 51 23 3.5 6.1 0.00 0.00 0.00 90 1008.8
20260506001544 51 16 3.5 4.3 0.00 0.00 0.00 90 1008.8
20260506000342 51 26 5.2 7.0 0.00 0.00 0.00 90 1008.8
20260505235142 51 12 2.6 6.1 0.00 0.00 0.00 90 1008.8
20260505233940 51 36 3.5 6.1 0.00 0.00 0.00 90 1008.8
20260505232759 51 26 4.3 7.0 0.00 0.00 0.00 90 1008.8
20260505231538 51 34 6.1 7.8 0.00 0.00 0.00 90 1008.8
20260505230337 51 23 5.2 8.7 0.00 0.00 0.00 91 1008.8
20260505225136 51 23 4.3 6.1 0.00 0.00 0.00 91 1008.8
20260505223934 51 14 4.3 7.8 0.00 0.00 0.00 92 1008.8
20260505222814 51 32 2.6 4.3 0.00 0.00 0.00 92 1008.8
20260505221532 51 23 2.6 5.2 0.00 0.00 0.00 92 1008.8
20260505220332 51 23 4.3 6.1 0.00 0.00 0.00 91 1008.8
20260505215119 51 0 3.5 6.1 0.00 0.00 0.00 91 1008.8
20260505213918 52 23 2.6 6.1 0.00 0.00 0.00 91 1008.8
20260505212736 52 23 4.3 7.8 0.00 0.00 0.00 90 1008.8
20260505211535 52 33 2.6 4.3 0.00 0.00 0.00 90 1008.8
20260505210435 52 23 7.0 12.2 0.00 0.00 0.00 90 1008.8
20260505205214 53 40 4.3 6.1 0.00 0.00 0.00 89 1008.8
20260505204012 53 23 3.5 6.1 0.00 0.00 0.00 89 1008.8
20260505202812 53 39 7.0 9.6 0.00 0.00 0.00 89 1008.8
20260505201611 54 17 6.1 7.0 0.00 0.00 0.00 89 1008.8
20260505200429 54 41 5.2 6.1 0.00 0.00 0.00 89 1008.8
20260505195209 54 40 6.1 10.4 0.00 0.00 0.00 90 1008.8
20260505194007 54 23 5.2 10.4 0.00 0.00 0.00 92 1008.8
20260505192806 54 23 6.1 9.6 0.00 0.00 0.00 93 1008.8
20260505191605 55 31 2.6 6.1 0.00 0.00 0.00 94 1008.8
20260505190424 55 31 2.6 5.2 0.00 0.00 0.00 94 1007.1